2021-10-05T00:02:13Z,166.140.102.113,# 19.7578,  4.57818,    2.894, 0.0978, -9.999, -0.999000,  33.4472, 05 Oct 2021 00:02:05,  23.6407, 11.9, 233.0
2021-10-05T00:06:13Z,166.140.102.113,# 19.7888,  4.58102,    2.875, 0.1087, -9.999, -0.999000,  33.4456, 05 Oct 2021 00:06:05,  23.6315, 11.9, 234.6
2021-10-05T00:10:13Z,166.140.102.113,# 19.7289,  4.57542,    2.900, 0.0930, -9.999, -0.999000,  33.4476, 05 Oct 2021 00:10:05,  23.6486, 11.9, 234.1
2021-10-05T00:14:13Z,166.140.102.113,# 19.7016,  4.57357,    2.856, 0.0954, -9.999, -0.999000,  33.4544, 05 Oct 2021 00:14:05,  23.6608, 11.9, 235.1
2021-10-05T00:18:13Z,166.140.102.113,# 19.6367,  4.56576,    2.981, 0.0939, -9.999, -0.999000,  33.4421, 05 Oct 2021 00:18:05,  23.6682, 12.0, 232.0
2021-10-05T00:22:13Z,166.140.102.113,# 19.5567,  4.55779,    2.942, 0.0826, -9.999, -0.999000,  33.4407, 05 Oct 2021 00:22:05,  23.6877, 12.0, 231.8
2021-10-05T00:26:13Z,166.140.102.113,# 19.6942,  4.57200,    2.982, 0.0862, -9.999, -0.999000,  33.4473, 05 Oct 2021 00:26:05,  23.6573, 12.0, 232.7
2021-10-05T00:30:13Z,166.140.102.113,# 19.5586,  4.55767,    3.046, 0.0851, -9.999, -0.999000,  33.4382, 05 Oct 2021 00:30:05,  23.6854, 11.9, 233.0
2021-10-05T00:34:13Z,166.140.102.113,# 19.6924,  4.57044,    3.101, 0.0850, -9.999, -0.999000,  33.4359, 05 Oct 2021 00:34:05,  23.6491, 11.9, 232.1
2021-10-05T00:38:13Z,166.140.102.113,# 19.6957,  4.57121,    3.119, 0.0923, -9.999, -0.999000,  33.4396, 05 Oct 2021 00:38:05,  23.6511, 11.9, 232.1
2021-10-05T00:42:13Z,166.140.102.113,# 19.2849,  4.53192,    3.125, 0.0730, -9.999, -0.999000,  33.4454, 05 Oct 2021 00:42:05,  23.7610, 11.9, 233.9
2021-10-05T00:46:13Z,166.140.102.113,# 19.0928,  4.51321,    3.178, 0.0650, -9.999, -0.999000,  33.4451, 05 Oct 2021 00:46:05,  23.8096, 11.9, 233.7
2021-10-05T00:50:13Z,166.140.102.113,# 19.2364,  4.52758,    3.182, 0.0571, -9.999, -0.999000,  33.4485, 05 Oct 2021 00:50:05,  23.7757, 11.9, 232.8
2021-10-05T00:54:13Z,166.140.102.113,# 19.2949,  4.53221,    3.199, 0.0496, -9.999, -0.999000,  33.4397, 05 Oct 2021 00:54:05,  23.7542, 11.9, 231.6
2021-10-05T00:58:13Z,166.140.102.113,# 19.3061,  4.53329,    3.292, 0.0486, -9.999, -0.999000,  33.4396, 05 Oct 2021 00:58:05,  23.7512, 11.9, 234.2
2021-10-05T01:02:13Z,166.140.102.113,# 19.1933,  4.52230,    3.270, 0.0523, -9.999, -0.999000,  33.4395, 05 Oct 2021 01:02:05,  23.7798, 11.9, 233.6
2021-10-05T01:06:13Z,166.140.102.113,# 19.1323,  4.51681,    3.210, 0.0558, -9.999, -0.999000,  33.4431, 05 Oct 2021 01:06:05,  23.7981, 12.0, 232.6
2021-10-05T01:10:13Z,166.140.102.113,# 19.0791,  4.51198,    3.303, 0.0567, -9.999, -0.999000,  33.4458, 05 Oct 2021 01:10:05,  23.8137, 12.0, 231.2
2021-10-05T01:14:13Z,166.140.102.113,# 18.9289,  4.49649,    3.275, 0.0561, -9.999, -0.999000,  33.4382, 05 Oct 2021 01:14:05,  23.8458, 11.9, 233.8
2021-10-05T01:18:13Z,166.140.102.113,# 18.9810,  4.50142,    3.326, 0.0595, -9.999, -0.999000,  33.4372, 05 Oct 2021 01:18:05,  23.8319, 11.9, 232.2
2021-10-05T01:22:13Z,166.140.102.113,# 18.9150,  4.49568,    3.377, 0.0666, -9.999, -0.999000,  33.4427, 05 Oct 2021 01:22:05,  23.8528, 11.9, 231.6
2021-10-05T01:26:13Z,166.140.102.113,# 18.8385,  4.48757,    3.424, 0.0830, -9.999, -0.999000,  33.4369, 05 Oct 2021 01:26:05,  23.8676, 11.9, 236.0
2021-10-05T01:30:13Z,166.140.102.113,# 18.8064,  4.48482,    3.380, 0.0789, -9.999, -0.999000,  33.4399, 05 Oct 2021 01:30:05,  23.8779, 11.9, 234.1
2021-10-05T01:34:13Z,166.140.102.113,# 18.7607,  4.47966,    3.431, 0.0831, -9.999, -0.999000,  33.4338, 05 Oct 2021 01:34:05,  23.8848, 11.9, 232.2
2021-10-05T01:38:13Z,166.140.102.113,# 18.6818,  4.47270,    3.543, 0.0789, -9.999, -0.999000,  33.4396, 05 Oct 2021 01:38:05,  23.9089, 11.9, 234.3
2021-10-05T01:42:13Z,166.140.102.113,# 18.6392,  4.46790,    3.453, 0.0859, -9.999, -0.999000,  33.4339, 05 Oct 2021 01:42:05,  23.9152, 12.0, 232.7
2021-10-05T01:46:13Z,166.140.102.113,# 18.6725,  4.47126,    3.478, 0.0860, -9.999, -0.999000,  33.4351, 05 Oct 2021 01:46:05,  23.9078, 12.0, 231.7
2021-10-05T01:50:13Z,166.140.102.113,# 18.6786,  4.47156,    3.512, 0.0892, -9.999, -0.999000,  33.4326, 05 Oct 2021 01:50:05,  23.9044, 12.0, 233.5
2021-10-05T01:54:13Z,166.140.102.113,# 18.6165,  4.46574,    3.603, 0.0989, -9.999, -0.999000,  33.4342, 05 Oct 2021 01:54:05,  23.9210, 12.0, 232.0
2021-10-05T01:58:13Z,166.140.102.113,# 18.5257,  4.45688,    3.587, 0.1130, -9.999, -0.999000,  33.4336, 05 Oct 2021 01:58:05,  23.9432, 11.9, 234.9
2021-10-05T02:02:13Z,166.140.102.113,# 18.5053,  4.45524,    3.567, 0.1152, -9.999, -0.999000,  33.4364, 05 Oct 2021 02:02:05,  23.9504, 11.9, 233.7
2021-10-05T02:06:13Z,166.140.102.113,# 18.4646,  4.44976,    3.541, 0.1070, -9.999, -0.999000,  33.4235, 05 Oct 2021 02:06:05,  23.9507, 11.9, 234.4
2021-10-05T02:10:13Z,166.140.102.113,# 18.4109,  4.44563,    3.610, 0.0989, -9.999, -0.999000,  33.4323, 05 Oct 2021 02:10:05,  23.9708, 11.9, 235.0
2021-10-05T02:14:13Z,166.140.102.113,# 18.4199,  4.44651,    3.631, 0.0993, -9.999, -0.999000,  33.4325, 05 Oct 2021 02:14:05,  23.9686, 11.9, 231.9
2021-10-05T02:18:13Z,166.140.102.113,# 18.3651,  4.44121,    3.723, 0.0944, -9.999, -0.999000,  33.4325, 05 Oct 2021 02:18:05,  23.9822, 11.9, 234.9
2021-10-05T02:22:13Z,166.140.102.113,# 18.4073,  4.44525,    3.709, 0.0948, -9.999, -0.999000,  33.4320, 05 Oct 2021 02:22:05,  23.9714, 12.0, 233.7
2021-10-05T02:26:13Z,166.140.102.113,# 18.4374,  4.44820,    3.734, 0.0890, -9.999, -0.999000,  33.4323, 05 Oct 2021 02:26:05,  23.9642, 12.0, 231.7
2021-10-05T02:30:13Z,166.140.102.113,# 18.4288,  4.44795,    3.721, 0.0945, -9.999, -0.999000,  33.4373, 05 Oct 2021 02:30:05,  23.9701, 12.0, 231.6
2021-10-05T02:34:13Z,166.140.102.113,# 18.4406,  4.44866,    3.721, 0.0896, -9.999, -0.999000,  33.4336, 05 Oct 2021 02:34:05,  23.9644, 11.9, 234.3
2021-10-05T02:38:13Z,166.140.102.113,# 18.4889,  4.45292,    3.678, 0.0842, -9.999, -0.999000,  33.4303, 05 Oct 2021 02:38:05,  23.9498, 11.9, 234.7
2021-10-05T02:42:13Z,166.140.102.113,# 18.5287,  4.45720,    3.769, 0.0826, -9.999, -0.999000,  33.4338, 05 Oct 2021 02:42:05,  23.9426, 11.9, 231.3
2021-10-05T02:46:13Z,166.140.102.113,# 18.5383,  4.45771,    3.798, 0.0808, -9.999, -0.999000,  33.4302, 05 Oct 2021 02:46:05,  23.9375, 12.1, 231.9
2021-10-05T02:50:13Z,166.140.102.113,# 18.5644,  4.46073,    3.806, 0.0828, -9.999, -0.999000,  33.4344, 05 Oct 2021 02:50:05,  23.9342, 12.0, 231.7
2021-10-05T02:54:13Z,166.140.102.113,# 18.5524,  4.45941,    3.734, 0.0741, -9.999, -0.999000,  33.4331, 05 Oct 2021 02:54:05,  23.9362, 12.0, 233.9
2021-10-05T02:58:13Z,166.140.102.113,# 18.5598,  4.45939,    3.759, 0.0701, -9.999, -0.999000,  33.4269, 05 Oct 2021 02:58:05,  23.9296, 12.0, 235.6
2021-10-05T03:02:13Z,166.140.102.113,# 18.5702,  4.46057,    3.825, 0.0755, -9.999, -0.999000,  33.4283, 05 Oct 2021 03:02:05,  23.9281, 11.9, 234.4
2021-10-05T03:06:13Z,166.140.102.113,# 18.5128,  4.45564,    3.876, 0.0698, -9.999, -0.999000,  33.4336, 05 Oct 2021 03:06:05,  23.9464, 11.9, 232.8
2021-10-05T03:10:13Z,166.140.102.113,# 18.6216,  4.46578,    3.763, 0.0659, -9.999, -0.999000,  33.4304, 05 Oct 2021 03:10:05,  23.9169, 11.9, 234.2
2021-10-05T03:14:13Z,166.140.102.113,# 18.5963,  4.46339,    3.836, 0.0689, -9.999, -0.999000,  33.4308, 05 Oct 2021 03:14:05,  23.9235, 11.9, 232.9
2021-10-05T03:18:13Z,166.140.102.113,# 18.6115,  4.46455,    3.865, 0.0676, -9.999, -0.999000,  33.4282, 05 Oct 2021 03:18:05,  23.9177, 12.0, 232.2
2021-10-05T03:22:13Z,166.140.102.113,# 18.6822,  4.47194,    3.820, 0.0802, -9.999, -0.999000,  33.4328, 05 Oct 2021 03:22:05,  23.9036, 11.9, 233.5
2021-10-05T03:26:13Z,166.140.102.113,# 18.7432,  4.47803,    3.799, 0.0674, -9.999, -0.999000,  33.4343, 05 Oct 2021 03:26:05,  23.8895, 11.9, 229.5
2021-10-05T03:30:13Z,166.140.102.113,# 18.7724,  4.48049,    3.764, 0.0781, -9.999, -0.999000,  33.4313, 05 Oct 2021 03:30:05,  23.8798, 12.0, 233.2
2021-10-05T03:32:01Z,0.0.0.0,�
2021-10-05T03:34:13Z,166.140.102.113,# 18.8462,  4.48797,    3.766, 0.0705, -9.999, -0.999000,  33.4340, 05 Oct 2021 03:34:05,  23.8634, 12.0, 232.3
2021-10-05T03:38:13Z,166.140.102.113,# 18.9183,  4.49544,    3.824, 0.0648, -9.999, -0.999000,  33.4379, 05 Oct 2021 03:38:05,  23.8483, 11.9, 231.6
2021-10-05T03:42:13Z,166.140.102.113,# 19.0559,  4.50834,    3.830, 0.0604, -9.999, -0.999000,  33.4342, 05 Oct 2021 03:42:05,  23.8107, 11.9, 231.7
2021-10-05T03:46:13Z,166.140.102.113,# 19.1271,  4.51558,    3.747, 0.0701, -9.999, -0.999000,  33.4368, 05 Oct 2021 03:46:05,  23.7946, 12.0, 233.7
2021-10-05T03:50:13Z,166.140.102.113,# 18.8620,  4.48942,    3.794, 0.0736, -9.999, -0.999000,  33.4332, 05 Oct 2021 03:50:05,  23.8588, 12.0, 232.9
2021-10-05T03:54:13Z,166.140.102.113,# 18.8867,  4.49166,    3.713, 0.0872, -9.999, -0.999000,  33.4320, 05 Oct 2021 03:54:05,  23.8516, 12.0, 234.5
2021-10-05T03:58:13Z,166.140.102.113,# 18.8600,  4.48911,    3.762, 0.0894, -9.999, -0.999000,  33.4323, 05 Oct 2021 03:58:05,  23.8587, 11.9, 231.5
2021-10-05T04:02:13Z,166.140.102.113,# 18.6948,  4.47262,    3.827, 0.0885, -9.999, -0.999000,  33.4282, 05 Oct 2021 04:02:05,  23.8970, 11.9, 235.8
2021-10-05T04:06:13Z,166.140.102.113,# 18.4835,  4.45225,    3.772, 0.0908, -9.999, -0.999000,  33.4290, 05 Oct 2021 04:06:05,  23.9502, 12.0, 231.1
2021-10-05T04:10:13Z,166.140.102.113,# 18.3274,  4.43650,    3.760, 0.0915, -9.999, -0.999000,  33.4234, 05 Oct 2021 04:10:05,  23.9846, 12.0, 230.8
2021-10-05T04:14:13Z,166.140.102.113,# 18.1526,  4.41933,    3.758, 0.0993, -9.999, -0.999000,  33.4209, 05 Oct 2021 04:14:05,  24.0256, 11.9, 233.1
2021-10-05T04:18:13Z,166.140.102.113,# 18.0881,  4.41248,    3.738, 0.0982, -9.999, -0.999000,  33.4156, 05 Oct 2021 04:18:05,  24.0374, 11.9, 235.2
2021-10-05T04:22:13Z,166.140.102.113,# 18.0167,  4.40569,    3.762, 0.0962, -9.999, -0.999000,  33.4165, 05 Oct 2021 04:22:05,  24.0555, 12.0, 232.4
2021-10-05T04:26:13Z,166.140.102.113,# 18.1277,  4.41618,    3.731, 0.0953, -9.999, -0.999000,  33.4146, 05 Oct 2021 04:26:05,  24.0270, 12.0, 230.0
2021-10-05T04:30:13Z,166.140.102.113,# 18.1734,  4.42023,    3.701, 0.0931, -9.999, -0.999000,  33.4115, 05 Oct 2021 04:30:05,  24.0134, 12.0, 232.6
2021-10-05T04:34:13Z,166.140.102.113,# 18.1729,  4.41889,    3.663, 0.1004, -9.999, -0.999000,  33.4007, 05 Oct 2021 04:34:05,  24.0052, 11.9, 233.5
2021-10-05T04:38:13Z,166.140.102.113,# 18.2408,  4.42522,    3.719, 0.1014, -9.999, -0.999000,  33.3988, 05 Oct 2021 04:38:05,  23.9871, 12.0, 233.0
2021-10-05T04:42:13Z,166.140.102.113,# 18.2055,  4.42077,    3.669, 0.0940, -9.999, -0.999000,  33.3900, 05 Oct 2021 04:42:05,  23.9890, 12.0, 232.9
2021-10-05T04:46:13Z,166.140.102.113,# 18.2520,  4.42238,    3.686, 0.0959, -9.999, -0.999000,  33.3657, 05 Oct 2021 04:46:05,  23.9590, 12.0, 235.3
2021-10-05T04:50:13Z,166.140.102.113,# 18.2737,  4.42537,    3.657, 0.0939, -9.999, -0.999000,  33.3733, 05 Oct 2021 04:50:05,  23.9595, 11.9, 232.8
2021-10-05T04:54:13Z,166.140.102.113,# 18.3041,  4.42963,    3.634, 0.0951, -9.999, -0.999000,  33.3845, 05 Oct 2021 04:54:05,  23.9605, 12.1, 228.8
2021-10-05T04:58:13Z,166.140.102.113,# 18.4006,  4.43942,    3.605, 0.0923, -9.999, -0.999000,  33.3885, 05 Oct 2021 04:58:05,  23.9398, 12.0, 232.1
2021-10-05T05:02:13Z,166.140.102.113,# 18.4365,  4.44311,    3.638, 0.0907, -9.999, -0.999000,  33.3904, 05 Oct 2021 05:02:05,  23.9323, 12.0, 233.0
2021-10-05T05:06:13Z,166.140.102.113,# 18.5451,  4.45399,    3.518, 0.0824, -9.999, -0.999000,  33.3937, 05 Oct 2021 05:06:05,  23.9079, 12.0, 233.5
2021-10-05T05:10:13Z,166.140.102.113,# 18.5354,  4.45205,    3.513, 0.0880, -9.999, -0.999000,  33.3852, 05 Oct 2021 05:10:05,  23.9038, 12.0, 233.0
2021-10-05T05:14:13Z,166.140.102.113,# 18.5573,  4.45487,    3.563, 0.0842, -9.999, -0.999000,  33.3911, 05 Oct 2021 05:14:05,  23.9029, 12.0, 231.4
2021-10-05T05:18:13Z,166.140.102.113,# 18.4920,  4.44814,    3.492, 0.0845, -9.999, -0.999000,  33.3877, 05 Oct 2021 05:18:05,  23.9165, 12.0, 233.3
2021-10-05T05:22:13Z,166.140.102.113,# 18.3793,  4.43817,    3.553, 0.0909, -9.999, -0.999000,  33.3953, 05 Oct 2021 05:22:05,  23.9503, 12.0, 233.9
2021-10-05T05:26:13Z,166.140.102.113,# 18.3246,  4.43273,    3.548, 0.0954, -9.999, -0.999000,  33.3940, 05 Oct 2021 05:26:05,  23.9628, 12.0, 233.3
2021-10-05T05:30:13Z,166.140.102.113,# 18.2854,  4.42927,    3.426, 0.0977, -9.999, -0.999000,  33.3968, 05 Oct 2021 05:30:05,  23.9745, 12.0, 233.0
2021-10-05T05:34:13Z,166.140.102.113,# 18.2691,  4.42786,    3.408, 0.0847, -9.999, -0.999000,  33.3981, 05 Oct 2021 05:34:05,  23.9796, 12.0, 231.1
2021-10-05T05:38:13Z,166.140.102.113,# 18.2054,  4.42117,    3.475, 0.0935, -9.999, -0.999000,  33.3935, 05 Oct 2021 05:38:05,  23.9918, 12.0, 234.1
2021-10-05T05:42:13Z,166.140.102.113,# 18.0882,  4.40846,    3.422, 0.1041, -9.999, -0.999000,  33.3816, 05 Oct 2021 05:42:05,  24.0114, 12.0, 233.2
2021-10-05T05:46:13Z,166.140.102.113,# 18.0548,  4.40533,    3.371, 0.1032, -9.999, -0.999000,  33.3823, 05 Oct 2021 05:46:05,  24.0200, 12.0, 232.4
2021-10-05T05:50:13Z,166.140.102.113,# 18.2036,  4.41869,    3.413, 0.0885, -9.999, -0.999000,  33.3740, 05 Oct 2021 05:50:05,  23.9772, 12.0, 231.0
2021-10-05T05:54:13Z,166.140.102.113,# 18.3094,  4.42902,    3.331, 0.0914, -9.999, -0.999000,  33.3752, 05 Oct 2021 05:54:05,  23.9521, 12.0, 232.7
2021-10-05T05:58:13Z,166.140.102.113,# 18.2914,  4.42644,    3.282, 0.0955, -9.999, -0.999000,  33.3681, 05 Oct 2021 05:58:05,  23.9512, 12.0, 232.5
2021-10-05T06:02:13Z,166.140.102.113,# 18.3251,  4.42864,    3.204, 0.0867, -9.999, -0.999000,  33.3592, 05 Oct 2021 06:02:05,  23.9360, 12.0, 231.5
2021-10-05T06:06:13Z,166.140.102.113,# 18.2192,  4.41801,    3.209, 0.0989, -9.999, -0.999000,  33.3556, 05 Oct 2021 06:06:05,  23.9594, 12.0, 231.0
2021-10-05T06:10:13Z,166.140.102.113,# 17.9423,  4.39216,    3.248, 0.1046, -9.999, -0.999000,  33.3625, 05 Oct 2021 06:10:05,  24.0323, 12.0, 230.5
2021-10-05T06:14:13Z,166.140.102.113,# 18.0029,  4.39786,    3.232, 0.0979, -9.999, -0.999000,  33.3615, 05 Oct 2021 06:14:05,  24.0168, 12.0, 229.7
2021-10-05T06:18:13Z,166.140.102.113,# 18.0676,  4.40388,    3.189, 0.0992, -9.999, -0.999000,  33.3597, 05 Oct 2021 06:18:05,  23.9996, 12.0, 231.8
2021-10-05T06:22:13Z,166.140.102.113,# 17.9930,  4.39633,    3.071, 0.1001, -9.999, -0.999000,  33.3567, 05 Oct 2021 06:22:05,  24.0155, 12.0, 231.9
2021-10-05T06:26:13Z,166.140.102.113,# 17.9588,  4.39217,    3.098, 0.1010, -9.999, -0.999000,  33.3491, 05 Oct 2021 06:26:05,  24.0181, 12.0, 232.4
2021-10-05T06:30:13Z,166.140.102.113,# 18.0443,  4.40031,    3.042, 0.0960, -9.999, -0.999000,  33.3485, 05 Oct 2021 06:30:05,  23.9968, 12.0, 231.3
2021-10-05T06:34:13Z,166.140.102.113,# 18.0367,  4.40020,    3.059, 0.0996, -9.999, -0.999000,  33.3537, 05 Oct 2021 06:34:05,  24.0026, 12.0, 230.7
2021-10-05T06:38:13Z,166.140.102.113,# 18.0267,  4.39978,    3.000, 0.1029, -9.999, -0.999000,  33.3584, 05 Oct 2021 06:38:05,  24.0087, 12.0, 232.6
2021-10-05T06:42:13Z,166.140.102.113,# 17.9946,  4.39690,    2.969, 0.0992, -9.999, -0.999000,  33.3602, 05 Oct 2021 06:42:05,  24.0178, 12.0, 231.9
2021-10-05T06:46:13Z,166.140.102.113,# 18.0850,  4.40520,    2.919, 0.0994, -9.999, -0.999000,  33.3567, 05 Oct 2021 06:46:05,  23.9931, 12.0, 231.2
2021-10-05T06:50:13Z,166.140.102.113,# 18.1371,  4.40971,    2.892, 0.0946, -9.999, -0.999000,  33.3525, 05 Oct 2021 06:50:05,  23.9771, 12.0, 229.8
2021-10-05T06:54:13Z,166.140.102.113,# 18.2467,  4.41993,    2.926, 0.0957, -9.999, -0.999000,  33.3496, 05 Oct 2021 06:54:05,  23.9479, 12.0, 230.2
2021-10-05T06:58:13Z,166.140.102.113,# 18.3976,  4.43436,    2.793, 0.0951, -9.999, -0.999000,  33.3487, 05 Oct 2021 06:58:05,  23.9101, 12.0, 231.6
2021-10-05T07:02:13Z,166.140.102.113,# 18.4059,  4.43573,    2.899, 0.0871, -9.999, -0.999000,  33.3534, 05 Oct 2021 07:02:05,  23.9116, 12.0, 232.6
2021-10-05T07:06:13Z,166.140.102.113,# 18.3960,  4.43474,    2.754, 0.0862, -9.999, -0.999000,  33.3532, 05 Oct 2021 07:06:05,  23.9139, 12.0, 232.6
2021-10-05T07:10:13Z,166.140.102.113,# 18.3840,  4.43310,    2.754, 0.0840, -9.999, -0.999000,  33.3491, 05 Oct 2021 07:10:05,  23.9137, 12.0, 233.7
2021-10-05T07:14:13Z,166.140.102.113,# 18.3452,  4.42777,    2.735, 0.0901, -9.999, -0.999000,  33.3357, 05 Oct 2021 07:14:05,  23.9130, 12.0, 233.9
2021-10-05T07:18:13Z,166.140.102.113,# 18.3625,  4.43002,    2.697, 0.0869, -9.999, -0.999000,  33.3407, 05 Oct 2021 07:18:05,  23.9127, 12.0, 231.8
2021-10-05T07:22:13Z,166.140.102.113,# 18.2689,  4.42187,    2.621, 0.0892, -9.999, -0.999000,  33.3481, 05 Oct 2021 07:22:05,  23.9413, 12.0, 233.5
2021-10-05T07:26:13Z,166.140.102.113,# 18.1631,  4.41107,    2.644, 0.0858, -9.999, -0.999000,  33.3428, 05 Oct 2021 07:26:05,  23.9633, 12.0, 231.0
2021-10-05T07:30:13Z,166.140.102.113,# 18.2025,  4.41431,    2.622, 0.0931, -9.999, -0.999000,  33.3382, 05 Oct 2021 07:30:05,  23.9501, 12.0, 231.4
2021-10-05T07:34:13Z,166.140.102.113,# 18.4340,  4.43637,    2.615, 0.0918, -9.999, -0.999000,  33.3361, 05 Oct 2021 07:34:05,  23.8914, 12.0, 231.0
2021-10-05T07:38:13Z,166.140.102.113,# 18.4663,  4.43952,    2.608, 0.0898, -9.999, -0.999000,  33.3364, 05 Oct 2021 07:38:05,  23.8837, 12.0, 231.9
2021-10-05T07:42:13Z,166.140.102.113,# 18.5231,  4.44612,    2.591, 0.0871, -9.999, -0.999000,  33.3458, 05 Oct 2021 07:42:05,  23.8767, 12.0, 233.7
2021-10-05T07:46:13Z,166.140.102.113,# 18.5444,  4.44870,    2.518, 0.0799, -9.999, -0.999000,  33.3502, 05 Oct 2021 07:46:05,  23.8748, 12.0, 232.2
2021-10-05T07:50:13Z,166.140.102.113,# 18.5540,  4.44984,    2.469, 0.0861, -9.999, -0.999000,  33.3521, 05 Oct 2021 07:50:05,  23.8738, 12.0, 232.9
2021-10-05T07:54:13Z,166.140.102.113,# 18.5471,  4.44948,    2.464, 0.0849, -9.999, -0.999000,  33.3546, 05 Oct 2021 07:54:05,  23.8775, 12.0, 233.7
2021-10-05T07:58:13Z,166.140.102.113,# 18.5365,  4.44859,    2.470, 0.0866, -9.999, -0.999000,  33.3557, 05 Oct 2021 07:58:05,  23.8810, 12.0, 234.2
2021-10-05T08:02:13Z,166.140.102.113,# 18.5213,  4.44690,    2.421, 0.0860, -9.999, -0.999000,  33.3538, 05 Oct 2021 08:02:05,  23.8834, 12.0, 231.1
2021-10-05T08:06:13Z,166.140.102.113,# 18.5049,  4.44550,    2.433, 0.0820, -9.999, -0.999000,  33.3554, 05 Oct 2021 08:06:05,  23.8886, 12.0, 233.2
2021-10-05T08:10:13Z,166.140.102.113,# 18.4720,  4.44273,    2.388, 0.0838, -9.999, -0.999000,  33.3587, 05 Oct 2021 08:10:05,  23.8993, 12.0, 232.7
2021-10-05T08:14:13Z,166.140.102.113,# 18.4568,  4.44046,    2.400, 0.0889, -9.999, -0.999000,  33.3521, 05 Oct 2021 08:14:05,  23.8980, 12.0, 232.5
2021-10-05T08:18:13Z,166.140.102.113,# 18.4256,  4.43723,    2.323, 0.0893, -9.999, -0.999000,  33.3502, 05 Oct 2021 08:18:05,  23.9043, 12.0, 231.1
2021-10-05T08:22:13Z,166.140.102.113,# 18.4150,  4.43614,    2.295, 0.0853, -9.999, -0.999000,  33.3497, 05 Oct 2021 08:22:05,  23.9065, 12.0, 231.3
2021-10-05T08:26:13Z,166.140.102.113,# 18.3828,  4.43306,    2.304, 0.0837, -9.999, -0.999000,  33.3499, 05 Oct 2021 08:26:05,  23.9146, 12.0, 233.4
2021-10-05T08:30:13Z,166.140.102.113,# 18.3693,  4.43140,    2.333, 0.0933, -9.999, -0.999000,  33.3469, 05 Oct 2021 08:30:05,  23.9157, 12.0, 230.7
2021-10-05T08:34:13Z,166.140.102.113,# 18.3662,  4.43111,    2.227, 0.0867, -9.999, -0.999000,  33.3470, 05 Oct 2021 08:34:05,  23.9165, 12.0, 231.4
2021-10-05T08:38:13Z,166.140.102.113,# 18.3654,  4.43094,    2.272, 0.0855, -9.999, -0.999000,  33.3462, 05 Oct 2021 08:38:05,  23.9162, 12.0, 230.9
2021-10-05T08:42:13Z,166.140.102.113,# 18.3667,  4.43086,    2.266, 0.0871, -9.999, -0.999000,  33.3444, 05 Oct 2021 08:42:05,  23.9144, 12.0, 230.5
2021-10-05T08:46:13Z,166.140.102.113,# 18.3466,  4.42805,    2.196, 0.0911, -9.999, -0.999000,  33.3371, 05 Oct 2021 08:46:05,  23.9138, 12.0, 229.9
2021-10-05T08:50:13Z,166.140.102.113,# 18.3485,  4.42825,    2.226, 0.0894, -9.999, -0.999000,  33.3373, 05 Oct 2021 08:50:05,  23.9135, 12.1, 230.5
2021-10-05T08:54:13Z,166.140.102.113,# 18.3500,  4.42864,    2.143, 0.0836, -9.999, -0.999000,  33.3393, 05 Oct 2021 08:54:05,  23.9147, 12.0, 231.4
2021-10-05T08:58:13Z,166.140.102.113,# 18.3378,  4.42625,    2.224, 0.0790, -9.999, -0.999000,  33.3291, 05 Oct 2021 08:58:05,  23.9099, 12.0, 229.7
2021-10-05T09:02:13Z,166.140.102.113,# 18.3347,  4.42442,    2.103, 0.0894, -9.999, -0.999000,  33.3162, 05 Oct 2021 09:02:05,  23.9008, 12.0, 232.3
2021-10-05T09:06:13Z,166.140.102.113,# 18.3399,  4.42472,    2.179, 0.0846, -9.999, -0.999000,  33.3146, 05 Oct 2021 09:06:05,  23.8983, 12.0, 231.2
2021-10-05T09:10:13Z,166.140.102.113,# 18.3447,  4.42521,    2.128, 0.0853, -9.999, -0.999000,  33.3148, 05 Oct 2021 09:10:05,  23.8972, 12.0, 234.4
2021-10-05T09:14:13Z,166.140.102.113,# 18.3348,  4.42462,    2.131, 0.0823, -9.999, -0.999000,  33.3178, 05 Oct 2021 09:14:05,  23.9020, 12.0, 229.6
2021-10-05T09:18:13Z,166.140.102.113,# 18.3311,  4.42454,    2.137, 0.0847, -9.999, -0.999000,  33.3202, 05 Oct 2021 09:18:05,  23.9047, 12.0, 232.3
2021-10-05T09:22:13Z,166.140.102.113,# 18.3213,  4.42309,    2.128, 0.0843, -9.999, -0.999000,  33.3159, 05 Oct 2021 09:22:05,  23.9038, 12.0, 230.7
2021-10-05T09:26:13Z,166.140.102.113,# 18.3019,  4.42065,    2.082, 0.0864, -9.999, -0.999000,  33.3111, 05 Oct 2021 09:26:05,  23.9050, 12.0, 232.3
2021-10-05T09:30:13Z,166.140.102.113,# 18.2904,  4.42024,    2.101, 0.0820, -9.999, -0.999000,  33.3169, 05 Oct 2021 09:30:05,  23.9122, 12.0, 232.6
2021-10-05T09:34:13Z,166.140.102.113,# 18.2745,  4.41907,    2.060, 0.0813, -9.999, -0.999000,  33.3201, 05 Oct 2021 09:34:05,  23.9186, 12.0, 231.5
2021-10-05T09:38:13Z,166.140.102.113,# 18.2649,  4.41897,    2.055, 0.0748, -9.999, -0.999000,  33.3270, 05 Oct 2021 09:38:05,  23.9262, 12.0, 232.7
2021-10-05T09:42:13Z,166.140.102.113,# 18.2076,  4.41451,    2.074, 0.0791, -9.999, -0.999000,  33.3359, 05 Oct 2021 09:42:05,  23.9471, 12.0, 232.7
2021-10-05T09:46:13Z,166.140.102.113,# 18.0781,  4.40241,    2.136, 0.0872, -9.999, -0.999000,  33.3390, 05 Oct 2021 09:46:05,  23.9813, 12.0, 232.0
2021-10-05T09:50:13Z,166.140.102.113,# 17.9855,  4.39392,    2.083, 0.0990, -9.999, -0.999000,  33.3426, 05 Oct 2021 09:50:05,  24.0066, 12.0, 233.0
2021-10-05T09:54:13Z,166.140.102.113,# 17.9956,  4.39494,    2.079, 0.0996, -9.999, -0.999000,  33.3430, 05 Oct 2021 09:54:05,  24.0044, 12.0, 231.5
2021-10-05T09:58:13Z,166.140.102.113,# 18.0070,  4.39632,    2.091, 0.0944, -9.999, -0.999000,  33.3455, 05 Oct 2021 09:58:05,  24.0035, 12.0, 231.7
2021-10-05T10:02:13Z,166.140.102.113,# 18.0056,  4.39614,    2.114, 0.0912, -9.999, -0.999000,  33.3451, 05 Oct 2021 10:02:05,  24.0037, 12.0, 232.5
2021-10-05T10:06:13Z,166.140.102.113,# 17.9898,  4.39458,    2.080, 0.0968, -9.999, -0.999000,  33.3447, 05 Oct 2021 10:06:05,  24.0072, 12.1, 231.8
2021-10-05T10:10:13Z,166.140.102.113,# 18.0068,  4.39562,    2.072, 0.1007, -9.999, -0.999000,  33.3397, 05 Oct 2021 10:10:05,  23.9991, 12.0, 230.6
2021-10-05T10:14:13Z,166.140.102.113,# 18.0167,  4.39651,    2.052, 0.0983, -9.999, -0.999000,  33.3391, 05 Oct 2021 10:14:05,  23.9963, 12.0, 232.6
2021-10-05T10:18:13Z,166.140.102.113,# 17.9995,  4.39501,    2.048, 0.1023, -9.999, -0.999000,  33.3404, 05 Oct 2021 10:18:05,  24.0015, 12.0, 230.9
2021-10-05T10:22:13Z,166.140.102.113,# 17.9992,  4.39455,    2.128, 0.1027, -9.999, -0.999000,  33.3368, 05 Oct 2021 10:22:05,  23.9988, 12.0, 231.5
2021-10-05T10:26:13Z,166.140.102.113,# 18.0127,  4.39546,    2.041, 0.1053, -9.999, -0.999000,  33.3335, 05 Oct 2021 10:26:05,  23.9930, 12.0, 231.8
2021-10-05T10:30:13Z,166.140.102.113,# 17.9807,  4.39236,    2.090, 0.0994, -9.999, -0.999000,  33.3332, 05 Oct 2021 10:30:05,  24.0006, 12.0, 232.0
2021-10-05T10:34:13Z,166.140.102.113,# 17.9814,  4.39189,    2.104, 0.0981, -9.999, -0.999000,  33.3287, 05 Oct 2021 10:34:05,  23.9969, 12.0, 234.3
2021-10-05T10:38:13Z,166.140.102.113,# 18.0095,  4.39426,    2.088, 0.0982, -9.999, -0.999000,  33.3259, 05 Oct 2021 10:38:05,  23.9880, 12.0, 230.1